Tracking 29747 objects as of 9-Oct-2024
HD Live streaming from Space Station
objects crossing your sky now

ONEWEB-0192

Track ONEWEB-0192 now!
10-day predictions
ONEWEB-0192 is classified as:


NORAD ID: 48222
Int'l Code: 2021-031N
Perigee: 1,211.6 km
Apogee: 1,214.3 km
Inclination: 87.9 °
Period: 109.5 minutes
Semi major axis: 7583 km
RCS: Unknown
Launch date: April 25, 2021
Source: United Kingdom (UK)
Launch site: VOSTOCHNY COSMODROME (VOSTO)
Your satellite tracking list
Your tracking list is empty




NASA's NSSDC Master Catalog

Two Line Element Set (TLE):
1 48222U 21031N   24282.84218902 -.00000331  00000-0 -92822-3 0  9992
2 48222  87.8990  52.2812 0001779  96.2465 263.8867 13.14502430167206
Source of the keplerian elements: AFSPC